Date,TemperatureHighF,TemperatureAvgF,TemperatureLowF,DewpointHighF,DewpointAvgF,DewpointLowF,HumidityHigh,HumidityAvg,HumidityLow,PressureMaxIn,PressureMinIn,WindSpeedMaxMPH,WindSpeedAvgMPH,GustSpeedMaxMPH,PrecipitationSumIn
2013-3-1,32,29,26,29,25,22,91,84,74,0.00,40.00,6,3,12,1.65
2013-3-2,33,27,25,26,23,21,93,83,72,0.00,40.00,5,1,11,11.17
2013-3-3,31,25,19,21,17,14,87,71,49,0.00,40.00,9,2,13,2.24
2013-3-4,38,27,17,24,18,15,94,71,40,0.00,40.00,5,1,11,0.00
2013-3-5,40,31,26,29,25,20,95,79,49,0.00,40.00,13,6,26,13.49
2013-3-6,43,34,30,33,30,29,98,84,66,0.00,40.00,12,5,24,0.00
2013-3-7,43,36,32,33,30,28,92,80,61,0.00,40.00,7,2,14,0.00
2013-3-8,47,34,24,30,25,20,93,70,45,0.00,40.00,7,2,12,0.00
2013-3-9,55,40,26,35,29,25,98,70,38,0.00,40.00,7,2,15,0.00
2013-3-10,62,55,51,40,35,31,62,47,38,0.00,40.00,10,4,20,0.00
2013-3-11,59,50,38,52,44,34,95,79,44,0.00,40.00,16,8,35,22.42
2013-3-12,39,35,31,34,30,24,91,82,73,0.00,40.00,9,-2,21,0.00
2013-3-13,34,30,26,28,24,16,88,76,54,0.00,40.00,15,8,26,1.65
2013-3-14,43,32,23,24,20,18,82,63,41,0.00,40.00,11,5,15,0.00
2013-3-15,48,39,31,40,32,24,96,77,60,0.00,40.00,9,3,16,4.44
2013-3-16,40,35,31,40,34,30,98,98,97,0.00,40.00,9,3,17,0.00
2013-3-17,33,30,27,31,24,20,98,79,63,0.00,40.00,9,4,17,0.00
2013-3-18,45,35,28,45,33,22,97,91,75,0.00,40.00,10,5,27,3.34
2013-3-19,36,31,26,35,20,14,97,63,44,0.00,40.00,14,7,30,0.00
2013-3-20,35,28,20,19,16,10,74,59,41,0.00,40.00,16,6,23,1.69
2013-3-21,34,25,17,20,16,10,87,70,52,0.00,40.00,12,6,21,1.10
2013-3-22,43,32,24,20,19,16,77,59,38,0.00,40.00,11,5,16,0.00
2013-3-23,44,32,22,28,23,20,95,69,44,0.00,40.00,9,2,14,0.00
2013-3-24,35,31,28,27,24,19,87,74,55,0.00,40.00,17,8,29,0.55
2013-3-25,35,33,31,34,32,26,98,95,75,0.00,40.00,11,5,21,20.23
2013-3-26,46,37,31,33,31,27,96,80,49,0.00,40.00,10,4,17,2.83
2013-3-27,46,38,33,32,28,22,92,69,39,0.00,40.00,15,6,24,2.83
2013-3-28,50,40,30,32,26,23,76,59,39,0.00,40.00,11,6,16,0.00
2013-3-29,53,41,28,34,25,20,95,59,29,0.00,40.00,8,2,14,0.00
2013-3-30,57,42,27,35,27,21,97,62,25,0.00,40.00,8,2,21,0.00
2013-3-31,59,48,36,47,36,-100,88,66,43,0.00,40.00,12,4,24,1.10